Regional Weather Roundup
Issued by NWS

Home | Current Version | Previous Version | Text Only | Print | Product List | Glossary Off
Versions: 1 2 3 4 5 6 7 8 9 10 11 12 13 14 15 16 17 18 19 20 21 22 23 24 25 26 27 28 29 30 31 32 33 34 35 36 37 38 39 40 41 42 43 44 45 46 47 48 49 50

000
ASUS43 KDTX 301810
RWRMI
MICHIGAN HOURLY REGIONAL WEATHER ROUNDUP
NATIONAL WEATHER SERVICE DETROIT/PONTIAC MI
200 PM EDT SAT APR 30 2016

NOTE: "FAIR" INDICATES FEW OR NO CLOUDS BELOW 12,000 FEET WITH NO
SIGNIFICANT WEATHER AND/OR OBSTRUCTION TO VISIBILITY.

MIZ047>049-052>055-059>063-066>070-074>076-081>083-301900-
SOUTHEAST LOWER MICHIGAN

CITY           SKY/WX    TMP DP  RH WIND       PRES   REMARKS
ADRIAN         CLOUDY    51  40  65 E9        30.10F
6HR MIN TEMP:  44; 6HR MAX TEMP:  54;

ALMA           MOSUNNY   56  35  44 E8        30.12F
ANN ARBOR      CLOUDY    54  39  57 E9        30.10F
BAD AXE        CLOUDY    55  30  38 E8        30.15F
CARO           CLOUDY    58  30  34 E9        30.12F
DETROIT CITY   CLOUDY    53  40  61 E13       30.13S
6HR MIN TEMP:  43; 6HR MAX TEMP:  53;

DETROIT        CLOUDY    55  40  56 E12       30.12S
6HR MIN TEMP:  45; 6HR MAX TEMP:  56;

FLINT          CLOUDY    61  35  37 E8        30.11S
6HR MIN TEMP:  44; 6HR MAX TEMP:  61;

GROSSE ILE     CLOUDY    54  45  71 E9        30.11R
HILLSDALE      DRIZZLE   50  38  62 E10       30.08F
6HR MIN TEMP:  44; 6HR MAX TEMP:  51;

HOWELL         CLOUDY    56  33  41 SE10      30.10F
6HR MIN TEMP:  42; 6HR MAX TEMP:  56;


CITY           SKY/WX    TMP DP  RH WIND       PRES   REMARKS
JACKSON        LGT RAIN  53  34  48 E9        30.09F
6HR MIN TEMP:  44; 6HR MAX TEMP:  54; 6HR PCP: TRACE;

LAMBERTVILLE   CLOUDY    50  40  69 E7        30.12R
6HR MIN TEMP:  46; 6HR MAX TEMP:  54;

LANSING        PTSUNNY   56  32  40 E15       30.10F
6HR MIN TEMP:  43; 6HR MAX TEMP:  56;

LAPEER         FAIR      57  34  41 E5        30.12S
6HR MIN TEMP:  43; 6HR MAX TEMP:  58;

MASON          CLOUDY    55  34  45 E7        30.10S
MONROE         CLOUDY    50  42  73 E8        30.11S
MT. CLEMENS    PTSUNNY   56  42  61 SE8       30.12S
6HR MIN TEMP:  44; 6HR MAX TEMP:  56;

PONTIAC        CLOUDY    55  37  50 SE13      30.11R
6HR MIN TEMP:  44; 6HR MAX TEMP:  56;

PORT HOPE        N/A     44  38  79 NE5       30.16F
6HR MIN TEMP:  41; 6HR MAX TEMP:  44;

PORT HURON     MOSUNNY   57  41  54 SE9       30.13S
TRI CITIES     PTSUNNY   58  39  49 NE13      30.14F
6HR MIN TEMP:  43; 6HR MAX TEMP:  58;

MIDLAND        FAIR      55  36  48 E9        30.13F
6HR MIN TEMP:  42; 6HR MAX TEMP:  55;

TROY           CLOUDY    55  37  50 E9        30.13F
SAGINAW HB     CLOUDY    57  37  47 NE8G18    30.12F
$$
MIZ043>046-050>051-056>058-064>065-071>073-077>080-301900-
SOUTHWEST LOWER MICHIGAN

CITY           SKY/WX    TMP DP  RH WIND       PRES   REMARKS
BATTLE CREEK   LGT RAIN  51  35  54 SE8       30.08F
6HR MIN TEMP:  46; 6HR MAX TEMP:  53; 6HR PCP: TRACE;

BENTON HARBOR  LGT RAIN  49  43  80 E8        30.03F
6HR MIN TEMP:  47; 6HR MAX TEMP:  51; 6HR PCP:  0.05;

BIG RAPIDS     CLOUDY    54  31  41 E9G16     30.11F
6HR MIN TEMP:  38; 6HR MAX TEMP:  55;

COLDWATER      LGT RAIN  49  42  74 E8        30.07F
6HR MIN TEMP:  46; 6HR MAX TEMP:  51;

FREMONT        FAIR      55  31  39 E9        30.09F
HOLLAND        CLOUDY    53  36  52 E12       30.07F
6HR MIN TEMP:  43; 6HR MAX TEMP:  53;

GRAND RAPIDS   CLOUDY    54  37  52 E14       30.09F
6HR MIN TEMP:  42; 6HR MAX TEMP:  54;

IONIA          FAIR      54  36  51 NE8       30.09F
6HR MIN TEMP:  39; 6HR MAX TEMP:  54;

KALAMAZOO      LGT RAIN  50  39  66 E6        30.07F
6HR MIN TEMP:  47; 6HR MAX TEMP:  53; 6HR PCP:  0.01;

LUDINGTON      PTSUNNY   57  33  40 E14       30.10F
6HR MIN TEMP:  39; 6HR MAX TEMP:  57;

MARSHALL       LGT RAIN  51  37  57 SE5       30.08F
6HR MIN TEMP:  45; 6HR MAX TEMP:  54;

MOUNT PLEASANT CLOUDY    57  31  37 E8        30.11F
6HR MIN TEMP:  39; 6HR MAX TEMP:  58;

MUSKEGON       CLOUDY    55  32  41 E12       30.07F
6HR MIN TEMP:  43; 6HR MAX TEMP:  55;

SOUTH HAVEN    RAIN      49  44  82 E8        30.04F
$$
MIZ016>042-301900-
NORTHERN LOWER MICHIGAN

CITY           SKY/WX    TMP DP  RH WIND       PRES   REMARKS
ALPENA         MOSUNNY   57  24  28 E13       30.18F
6HR MIN TEMP:  38; 6HR MAX TEMP:  57;

BEAVER ISLAND  SUNNY     56  29  36 NE8       30.18F
6HR MIN TEMP:  42; 6HR MAX TEMP:  56;

BELLAIRE       MOSUNNY   61  25  25 SE5       30.13F
6HR MIN TEMP:  37; 6HR MAX TEMP:  62;

CADILLAC       PTSUNNY   55  31  39 SE5       30.10F
CHARLEVOIX     MOSUNNY   49  35  58 N9        30.19F
6HR MIN TEMP:  41; 6HR MAX TEMP:  53;

FRANKFORT      CLOUDY    56  36  47 N12       30.11F
GAYLORD        MOSUNNY   58  26  29 E8        30.14F
6HR MIN TEMP:  42; 6HR MAX TEMP:  58;

GRAYLING       MOSUNNY   59  30  33 NE6       30.13F
HARBOR SPRINGS SUNNY     60  28  29 E5        30.15F
HOUGHTON LAKE  CLOUDY    57  29  34 MISG      30.13F
6HR MIN TEMP:  37; 6HR MAX TEMP:  58;

MANISTEE       PTSUNNY   54  36  50 NW9       30.11F
OSCODA         CLOUDY    55  28  35 E8        30.17F
6HR MIN TEMP:  37; 6HR MAX TEMP:  56;

PELLSTON       SUNNY     60  28  29 E17       30.17F
6HR MIN TEMP:  35; 6HR MAX TEMP:  60;

ROGERS CITY    SUNNY     48  33  57 NE7       30.20F
TRAVERSE CITY  CLOUDY    51  36  56 N7        30.12F
6HR MIN TEMP:  40; 6HR MAX TEMP:  57; 6HR PCP: TRACE;

$$
MIZ007>008-015-301900-
EASTERN UPPER MICHIGAN

CITY           SKY/WX    TMP DP  RH WIND       PRES   REMARKS
KINROSS          N/A     57  27  30 E10       30.18F
6HR MIN TEMP:  36; 6HR MAX TEMP:  57;

MACKINAC ISLAN SUNNY     51  28  40 E7        30.20S
NEWBERRY       CLOUDY    55  32  42 N12       30.17F
6HR MIN TEMP:  37; 6HR MAX TEMP:  56;

S. S. MARIE    SUNNY     58  29  33 VRB3      30.18F
6HR MIN TEMP:  36; 6HR MAX TEMP:  58;

MUNISING         N/A     42  36  79 NE13      30.23S
6HR MIN TEMP:  35; 6HR MAX TEMP:  43;

$$
MIZ004>006-011>014-085-301900-
CENTRAL UPPER MICHIGAN

CITY           SKY/WX    TMP DP  RH WIND       PRES   REMARKS
MANISTIQUE     CLOUDY    55  26  31 SE12      30.18F
6HR MIN TEMP:  38; 6HR MAX TEMP:  56;

ESCANABA       CLOUDY    54  32  43 SE12      30.17F
6HR MIN TEMP:  41; 6HR MAX TEMP:  55;

MENOMINEE      PTSUNNY   52  32  46 E16       30.15F
6HR MIN TEMP:  43; 6HR MAX TEMP:  52;

SAWYER-GWINN   SUNNY     46  34  61 NE14G21   30.23S
$$
MIZ001>003-009>011-084-301900-
WESTERN UPPER MICHIGAN

CITY           SKY/WX    TMP DP  RH WIND       PRES   REMARKS
IRON MOUNTAIN  CLOUDY    56  31  38 NE9       30.14F
6HR MIN TEMP:  36; 6HR MAX TEMP:  57;

HOUGHTON       SUNNY     49  33  54 NE14G20   30.24F
6HR MIN TEMP:  42; 6HR MAX TEMP:  50;

COPPER HARBOR    N/A     41  37  86 NE7       30.28F
6HR MIN TEMP:  39; 6HR MAX TEMP:  42;

IRONWOOD         N/A     50  34  53 NE9G21    30.17F
6HR MIN TEMP:  36; 6HR MAX TEMP:  52;

$$

ABBREVIATIONS USED IN REMARKS
   TC - TEMPERATURE IN CELSIUS
  WCI - WIND CHILL INDEX
   HX - HEAT INDEX
  VSB - VISIBILITY





USA.gov is the U.S. government's official web portal to all federal, state and local government web resources and services.